Regional Weather Roundup
Issued by NWS

Home | Current Version | Previous Version | Text Only | Print | Product List | Glossary Off
Versions: 1 2 3 4 5 6 7 8 9 10 11 12 13 14 15 16 17 18 19 20 21 22 23 24 25 26 27 28 29 30 31 32 33 34 35 36 37 38 39 40 41 42 43 44 45 46 47 48 49 50

000
ASUS43 KLSX 241707
RWRMO

WEATHER SUMMARY FOR MISSOURI
NATIONAL WEATHER SERVICE SPRINGFIELD MO
1200 PM CDT MON APR 24 2017

NOTE: "FAIR" INDICATES FEW OR NO CLOUDS BELOW 12,000 FEET WITH NO
       SIGNIFICANT WEATHER AND/OR OBSTRUCTIONS TO VISIBILITY.
       CURRENT SKY AND/OR WEATHER CONDITIONS ARE NOT AVAILABLE FOR
       CHILLICOTHE AND FARMINGTON.

MOZ001>031-035>038-043-044-053-054-241800-
...NORTHERN AND WESTERN MISSOURI...

CITY           SKY/WX    TMP DP  RH WIND       PRES   REMARKS
KANSAS CTY INT PTSUNNY   71  35  26 S26G32    29.79F
KANSAS C DTWN  CLOUDY    71  34  25 S25G32    29.80F
LEE`S SUMMIT   SUNNY     68  34  28 S23G33    29.82F
ST JOSEPH      SUNNY     70  35  27 S28G45    29.75F
CHILLICOTHE      N/A     70  32  24 S18G28    29.84F
KIRKSVILLE     SUNNY     71  34  25 SE17G24   29.88F

$$
MOZ066>068-077>081-088>096-101>105-241800-
...SOUTHWEST MISSOURI...

CITY           SKY/WX    TMP DP  RH WIND       PRES   REMARKS
SPRINGFIELD    SUNNY     69  37  30 S14       29.91F
JOPLIN         SUNNY     70  39  32 S18       29.87F
BRANSON        SUNNY     68  36  30 SE6       29.96F

$$
MOZ032>034-039>042-045>050-055>058-069>072-241800-
...CENTRAL MISSOURI...

CITY           SKY/WX    TMP DP  RH WIND       PRES   REMARKS
COLUMBIA       SUNNY     69  33  26 S15       29.91F
JEFFERSON CITY SUNNY     71  39  31 VRB6      29.91F
ROLLA          SUNNY     69  38  32 VRB7      29.92F
SEDALIA        SUNNY     71  34  25 S18G25    29.89F
WHITEMAN AFB   PTSUNNY   69  36  29 S16G29    29.86F
OSAGE BEACH    SUNNY     70  31  23 S13       29.92F

$$
MOZ051-052-059>065-241800-
...EAST CENTRAL MISSOURI...

CITY           SKY/WX    TMP DP  RH WIND       PRES   REMARKS
ST LOUIS INTL  MOSUNNY   71  32  23 CALM      29.94F
SPIRIT OF STL  MOSUNNY   70  34  26 SE7       29.93F
ST CHARLES     SUNNY     71  32  23 VRB6      29.93F

$$
MOZ072>076-082>087-097>100-106>115-241800-
...SOUTH CENTRAL AND SOUTHEAST MISSOURI...

CITY           SKY/WX    TMP DP  RH WIND       PRES   REMARKS
CAPE GIRARDEAU SUNNY     70  44  39 N9        29.90F
FARMINGTON     SUNNY     67  40  37 CALM      29.95F
POPLAR BLUFF   SUNNY     69  51  52 VRB7      29.92F
WEST PLAINS    SUNNY     71  34  25 NW3       29.96F

$$




USA.gov is the U.S. government's official web portal to all federal, state and local government web resources and services.